TimeEST,TemperatureF,Dew PointF,Humidity,Sea Level PressureIn,VisibilityMPH,Wind Direction,Wind SpeedMPH,Gust SpeedMPH,PrecipitationIn,Events,Conditions,WindDirDegrees,DateUTC
12:54 AM,44.1,39.0,82,30.02,10.0,Calm,Calm,-,N/A,,Partly Cloudy,0,2012-11-05 05:54:00
1:54 AM,42.1,36.0,79,30.02,10.0,NW,3.5,-,N/A,,Partly Cloudy,310,2012-11-05 06:54:00
2:54 AM,42.1,34.0,73,30.02,10.0,NW,4.6,-,N/A,,Partly Cloudy,310,2012-11-05 07:54:00
3:54 AM,41.0,33.1,73,30.03,10.0,NNW,6.9,-,N/A,,Clear,330,2012-11-05 08:54:00
4:45 AM,39.2,35.6,87,30.05,10.0,North,4.6,-,N/A,,Scattered Clouds,350,2012-11-05 09:45:00
4:54 AM,39.9,36.0,86,30.05,10.0,North,6.9,-,N/A,,Mostly Cloudy,350,2012-11-05 09:54:00
5:19 AM,39.2,35.6,87,30.05,10.0,North,5.8,-,N/A,,Scattered Clouds,360,2012-11-05 10:19:00
5:54 AM,37.9,34.0,86,30.07,10.0,North,5.8,-,N/A,,Clear,350,2012-11-05 10:54:00
6:54 AM,37.0,33.1,86,30.08,10.0,North,3.5,-,N/A,,Clear,350,2012-11-05 11:54:00
7:54 AM,41.0,34.0,76,30.10,10.0,North,4.6,-,N/A,,Clear,350,2012-11-05 12:54:00
8:54 AM,44.1,33.1,65,30.11,10.0,Variable,5.8,-,N/A,,Clear,0,2012-11-05 13:54:00
9:54 AM,46.9,32.0,56,30.09,10.0,Calm,Calm,-,N/A,,Clear,0,2012-11-05 14:54:00
10:54 AM,48.9,32.0,52,30.08,10.0,Calm,Calm,-,N/A,,Clear,0,2012-11-05 15:54:00
11:54 AM,52.0,32.0,47,30.07,10.0,Variable,5.8,-,N/A,,Clear,0,2012-11-05 16:54:00
12:54 PM,54.0,30.0,40,30.04,10.0,North,6.9,-,N/A,,Clear,350,2012-11-05 17:54:00
1:54 PM,55.0,30.0,38,30.03,10.0,North,8.1,-,N/A,,Clear,10,2012-11-05 18:54:00
2:54 PM,55.0,30.0,38,30.02,10.0,Calm,Calm,-,N/A,,Clear,0,2012-11-05 19:54:00
3:54 PM,55.0,30.0,38,30.03,10.0,NNE,5.8,-,N/A,,Clear,30,2012-11-05 20:54:00
4:54 PM,51.1,30.0,44,30.03,10.0,NNE,5.8,-,N/A,,Clear,30,2012-11-05 21:54:00
5:54 PM,45.0,30.9,58,30.05,10.0,Calm,Calm,-,N/A,,Clear,0,2012-11-05 22:54:00
6:54 PM,42.1,32.0,67,30.07,10.0,Calm,Calm,-,N/A,,Clear,0,2012-11-05 23:54:00
7:54 PM,42.1,30.9,65,30.09,10.0,Calm,Calm,-,N/A,,Clear,0,2012-11-06 00:54:00
8:54 PM,42.1,30.9,65,30.10,10.0,Calm,Calm,-,N/A,,Clear,0,2012-11-06 01:54:00
9:54 PM,39.0,32.0,76,30.11,10.0,Calm,Calm,-,N/A,,Clear,0,2012-11-06 02:54:00
10:54 PM,36.0,30.9,82,30.11,10.0,Calm,Calm,-,N/A,,Clear,0,2012-11-06 03:54:00
11:54 PM,34.0,30.0,85,30.10,10.0,Calm,Calm,-,N/A,,Clear,0,2012-11-06 04:54:00